CAPE
1112 1336 1505 1380 1623 1269 1439 1230 1154 1231 839 727 1134 1129 871 562 941 668 909 1075 1137 933 658 828 826 731 1299 513 406 115 212 209 136 64 74 152 225 106 317 421 337 802 853
1482 1379 1395 1455 1312 1233 948 999 1271 1343 682 686 642 799 718 702 954 1126 1082 1661 1211 1082 824 862 1168 1267 1291 966 545 199 68 240 159 114 8 27 153 78 122 312 253 264 423
2214 2084 1661 1100 1656 1042 1813 1372 1043 1067 769 626 699 856 958 636 812 1022 987 1128 1518 1219 870 641 1003 1040 926 626 828 652 221 37 43 84 75 14 102 88 96 102 228 214 285
2314 2221 1644 1409 1438 1558 601 376 670 927 975 1110 1099 871 436 492 873 903 1211 1394 1685 1326 853 395 27 0 0 0 212 414 311 143 227 146 230 7 87 86 95 146 182 232 174
1637 1991 1314 1170 1367 966 554 293 840 1451 1105 890 1142 492 581 926 955 1174 1457 1527 1666 1358 1035 7 0 35 5 0 34 171 243 261 262 244 151 9 71 91 92 115 89 156 119
1767 1928 1051 1216 1377 746 321 1201 2144 1910 1631 1428 995 345 518 727 728 1116 1101 1335 1291 1090 742 846 536 370 4 0 0 0 166 144 97 375 319 49 43 113 94 109 48 122 184
1566 1803 933 930 1027 950 1496 1941 2111 1775 1582 1638 1387 565 216 869 852 1291 1193 1162 1010 929 910 901 645 433 53 1 7 0 0 78 95 373 535 10 25 84 71 95 76 121 90
2184 1557 1107 1082 702 863 2139 2861 2276 2400 1555 1359 1515 1155 262 214 459 1498 1530 949 1118 876 651 618 183 114 139 150 26 2 0 0 84 256 305 175 81 74 35 65 49 79 75
2405 1332 2268 2261 2440 2313 792 2453 2151 2396 1808 1635 1779 2030 823 482 767 1466 2024 1678 1291 738 532 280 254 44 16 32 15 21 0 0 0 102 353 376 208 133 60 31 40 71 96
1891 1484 2216 2607 3092 1977 1949 1932 2934 2911 2362 1814 1878 1728 2129 1797 1092 550 738 1786 1599 758 476 280 154 16 4 9 30 16 0 0 0 0 200 386 378 131 65 53 41 66 103
2377 1853 2114 2424 2867 2765 2290 3062 3163 2671 1914 1989 1296 1475 1726 1446 1847 1218 595 654 709 654 354 209 60 10 9 12 30 0 0 0 0 0 1 239 466 371 225 122 65 89 79
1644 2448 1903 2201 2616 2920 2703 3084 3526 2622 3166 2742 2290 1902 1978 1286 881 725 652 750 435 870 252 103 10 6 11 16 7 0 0 0 0 17 30 91 291 558 578 482 223 123 79
782 1052 1923 2419 2349 3151 3431 3396 3267 3080 2928 3097 3091 2188 2018 1701 1658 1303 893 522 306 938 340 78 6 6 8 3 9 0 5 0 0 0 0 6 216 402 515 458 441 353 212
563 574 868 1485 2320 2405 2987 3422 3631 2707 3043 2869 3115 3036 2685 2121 2008 1823 1528 705 339 446 292 62 11 9 5 3 2 27 29 2 3 6 0 0 52 298 435 479 420 387 256
1453 1328 1291 1320 1619 2128 2625 3418 3252 3156 3202 3116 3059 2738 2270 2474 2059 2277 1383 890 1091 165 503 4 5 4 9 11 3 13 28 2 1 4 1 0 0 26 285 539 363 377 245
2373 2459 2671 2333 1940 2249 2534 3147 2854 2561 3279 3121 2629 2656 2945 2546 2670 1973 1416 928 946 576 503 15 5 3 0 17 0 27 4 2 0 0 0 0 14 3 1 36 143 217 102
2904 3006 3108 3132 3086 2891 2821 2932 2901 2781 2615 2938 3053 3095 2896 2480 2775 2098 1407 831 742 574 524 7 0 3 2 3 5 16 48 54 3 0 0 0 0 0 0 0 9 3 12
2886 3062 3228 3345 3398 3369 3452 3311 3119 2891 3112 2897 2912 3062 2878 2669 2827 2649 1668 1165 1006 866 441 50 0 2 6 0 3 13 20 19 11 0 0 0 0 0 0 0 1 4 5
3431 3440 3415 3522 3597 3692 3778 3876 3752 3663 3361 2842 2556 2943 3147 3009 2817 2469 1942 1084 692 591 498 8 5 5 1 5 1 19 19 4 5 0 0 0 0 0 0 0 0 0 0
3906 3929 3976 4051 4100 4065 3991 3941 3814 3786 3501 3009 2843 3030 3263 3015 2606 2596 2234 1207 838 769 332 40 5 1 1 0 13 8 29 11 17 17 1 23 0 0 0 0 0 0 0
3561 4117 4258 4227 4308 4234 3940 3946 3872 3830 3571 3167 3006 3053 3097 2684 2750 2146 1783 1246 728 570 154 0 2 3 9 0 0 2 14 20 26 58 13 11 4 12 0 0 0 0 0
238 530 1002 2216 3036 3120 2972 3380 3013 3193 3281 3137 3155 3016 2976 2461 2196 1579 1045 587 725 713 288 0 0 0 7 0 16 0 13 5 22 6 16 1 72 107 46 155 0 0 0
312 336 367 470 589 983 958 1442 2121 3074 3454 3504 3263 3176 2775 2743 2104 1431 505 215 156 144 6 12 3 0 0 0 3 10 6 17 13 1 35 20 13 92 17 0 0 0 0
230 173 166 206 380 648 454 196 176 685 1879 2964 3419 3471 3413 2395 1899 1618 1026 212 301 98 2 0 0 0 0 0 0 48 0 31 0 10 6 13 70 59 25 0 0 0 0
306 226 60 103 111 271 315 48 196 48 151 1176 2591 3410 3748 2851 2162 1072 1300 553 411 390 0 0 0 0 0 0 0 20 4 1 1 6 43 12 31 15 28 0 0 0 0
14 2 58 69 48 2 196 0 2 14 0 125 1382 2343 3297 3068 1995 1053 935 525 686 414 0 0 0 0 0 0 0 6 35 28 43 3 0 15 35 17 32 11 0 0 0
CIN
-0 -2 -0 -2 -2 -11 -2 -1 -1 -1 -1 -3 -3 -7 -71 -2 -0 -0 -3 -59 -66 -87 -96 -87 -62 -39 -0 -12 -5 -16 -9 -4 -4 -0 -2 -1 -3 -8 -4 -4 -8 -3 -3
-1 -0 -0 -3 -9 -2 -1 -2 -5 -8 -7 -3 -8 -2 -2 -17 -2 -4 -3 -48 -53 -76 -86 -81 -35 -8 -0 -0 -5 -7 -11 -0 -0 -0 -3 -11 -1 -25 -10 -4 -17 -12 -6
-1 -6 -3 -1 -5 -2 -7 -6 -10 -4 -3 -2 -4 -3 -5 -1 -1 -2 -2 -43 -65 -61 -78 -77 -31 -16 -12 -9 -6 -0 -7 -7 -4 -2 -0 -8 -0 -0 -11 -9 -19 -27 -7
-0 -5 -2 -13 -9 -3 -1 -2 -5 -2 -3 -5 -4 -7 -2 -3 -3 -3 -3 -5 -9 -43 -75 -86 -123 -0 -0 -0 -28 -0 -0 -4 -0 -1 -0 -0 -0 -0 -2 -5 -5 -11 -32
-0 -3 -2 -58 -2 -2 -0 -5 -1 -1 -1 -24 -3 -2 -1 -2 -1 -18 -16 -10 -6 -1 -25 -21 -15 -173 -72 -0 -154 -33 -9 -0 -0 -0 -0 -1 -0 -0 -0 -3 -25 -12 -21
-1 -0 -2 -2 -3 -1 -2 -11 -3 -2 -1 -4 -3 -2 -2 -3 -6 -17 -1 -11 -12 -1 -1 -0 -0 -6 -61 -0 -0 -0 -34 -13 -26 -0 -0 -16 -10 -2 -0 -0 -19 -5 -11
-0 -0 -2 -7 -6 -3 -10 -11 -3 -3 -6 -3 -2 -2 -9 -1 -4 -9 -5 -6 -3 -4 -4 -3 -0 -0 -122 -16 -36 -0 -0 -85 -26 -3 -0 -23 -0 -7 -12 -0 -0 -0 -31
-0 -0 -8 -2 -2 -1 -5 -3 -0 -1 -1 -2 -1 -1 -2 -7 -2 -2 -9 -5 -7 -2 -8 -8 -62 -54 -53 -50 -68 -8 -3 -0 -28 -0 -0 -2 -17 -9 -37 -7 -1 -1 -25
-0 -1 -0 -3 -4 -6 -3 -3 -2 -5 -15 -7 -5 -3 -4 -3 -0 -6 -4 -1 -13 -4 -8 -79 -47 -136 -150 -117 -1 -17 -0 -0 -0 -18 -0 -0 -0 -6 -31 -0 -0 -1 -10
-2 -0 -1 -0 -0 -5 -9 -4 -2 -4 -3 -12 -2 -19 -9 -7 -3 -12 -3 -16 -3 -21 -39 -59 -90 -100 -1 -0 -2 -14 -0 -0 -0 -0 -3 -0 -0 -9 -2 -82 -1 -1 -6
-1 -1 -1 -1 -1 -1 -0 -0 -5 -13 -18 -2 -1 -1 -7 -3 -19 -3 -6 -2 -5 -32 -68 -91 -148 -102 -0 -1 -1 -3 -0 -0 -0 -0 -4 -1 -0 -0 -1 -19 -49 -0 -0
-5 -13 -2 -1 -0 -1 -2 -1 -2 -9 -6 -8 -4 -9 -1 -1 -1 -0 -6 -0 -7 -11 -89 -151 -115 -0 -0 -2 -11 -0 -0 -0 -0 -12 -52 -23 -1 -0 -0 -0 -19 -7 -0
-3 -2 -4 -1 -2 -1 -1 -0 -0 -3 -7 -1 -4 -4 -2 -3 -3 -2 -1 -13 -28 -19 -46 -135 -1 -1 -1 -11 -3 -0 -1 -0 -0 -0 -0 -7 -5 -0 -0 -0 -0 -0 -4
-13 -16 -21 -14 -3 -3 -1 -0 -1 -2 -0 -1 -1 -0 -1 -1 -1 -1 -1 -26 -37 -22 -64 -164 -0 -0 -2 -3 -2 -1 -3 -0 -6 -17 -2 -0 -26 -12 -0 -0 -0 -0 -0
-17 -23 -46 -47 -35 -15 -2 -0 -0 -3 -0 -1 -0 -1 -15 -7 -0 -3 -4 -36 -12 -79 -31 -67 -0 -3 -1 -0 -3 -5 -0 -8 -11 -32 -38 -0 -0 -80 -50 -0 -0 -0 -0
-12 -21 -16 -20 -38 -20 -8 -0 -2 -1 -2 -1 -1 -0 -2 -1 -1 -1 -15 -47 -37 -45 -23 -93 -0 -1 -0 -0 -1 -0 -0 -0 -0 -0 -0 -5 -64 -115 -116 -86 -32 -12 -23
-49 -51 -47 -44 -33 -26 -22 -17 -21 -34 -29 -9 -0 -1 -1 -7 -1 -8 -11 -59 -28 -28 -34 -185 -0 -1 -0 -0 -1 -0 -0 -0 -0 -0 -0 -0 -0 -0 -0 -0 -146 -185 -32
-59 -59 -55 -55 -48 -38 -25 -38 -42 -40 -7 -8 -2 -1 -1 -1 -2 -1 -19 -50 -7 -4 -30 -111 -0 -0 -0 -0 -0 -0 -1 -0 -0 -0 -0 -0 -0 -0 -0 -0 -75 -172 -92
-53 -44 -40 -38 -44 -35 -30 -21 -29 -30 -23 -21 -23 -0 -1 -1 -1 -2 -9 -39 -68 -47 -15 -51 -1 -1 -1 -1 -0 -0 -3 -1 -0 -0 -0 -0 -0 -0 -0 -0 -0 -0 -0
-15 -18 -28 -23 -22 -15 -18 -20 -18 -15 -17 -20 -10 -0 -0 -1 -4 -1 -2 -59 -67 -32 -49 -34 -1 -1 -1 -0 -1 -1 -2 -5 -1 -11 -1 -2 -0 -0 -0 -0 -0 -0 -0
-25 -1 -5 -7 -3 -2 -2 -2 -2 -2 -3 -10 -7 -1 -1 -2 -6 -12 -10 -32 -51 -59 -58 -0 -0 -1 -1 -0 -0 -0 -4 -19 -19 -5 -8 -21 -3 -10 -0 -0 -0 -0 -0
-436 -370 -261 -115 -38 -15 -34 -30 -49 -18 -6 -2 -1 -0 -1 -16 -32 -73 -96 -118 -77 -31 -49 -0 -0 -0 -1 -0 -1 -0 -1 -8 -0 -13 -3 -3 -0 -3 -2 -0 -0 -0 -0
-413 -400 -360 -325 -281 -213 -255 -227 -154 -59 -18 -2 -5 -0 -2 -5 -34 -98 -181 -226 -180 -188 -212 -89 -27 -0 -0 -0 -4 -4 -1 -3 -2 -1 -7 -10 -23 -3 -33 -0 -0 -0 -0
-412 -424 -413 -402 -339 -290 -345 -464 -521 -371 -162 -16 -1 -8 -1 -4 -43 -59 -94 -213 -175 -195 -54 -0 -0 -0 -0 -0 -0 -2 -0 -1 -0 -2 -22 -4 -7 -8 -48 -0 -0 -0 -0
-323 -352 -416 -375 -401 -369 -376 -516 -491 -482 -410 -183 -22 -1 -1 -0 -10 -125 -19 -113 -104 -71 -0 -0 -0 -0 -0 -0 -0 -0 -2 -1 -1 -1 -4 -9 -13 -14 -17 -0 -0 -0 -0
-424 -494 -363 -370 -396 -63 -352 -0 -431 -424 -0 -383 -117 -13 -5 -3 -28 -110 -62 -82 -43 -48 -0 -0 -0 -0 -0 -0 -0 -8 -8 -0 -4 -4 -0 -4 -5 -6 -0 -46 -0 -0 -0
Wind_Speed
13 13 13 10 10 10 8 13 13 9 7 6 13 5 5 4 6 5 5 12 7 10 8 4 2 2 2 4 4 5 4 8 10 11 15 19 29 33 30 21 20 16 13
14 14 11 12 10 13 16 14 13 11 8 6 5 8 5 10 5 7 6 11 11 11 13 9 6 4 2 2 5 5 4 8 8 10 14 26 24 24 30 19 21 23 23
13 15 13 11 17 18 13 12 11 11 6 7 8 4 4 6 7 9 9 15 13 14 15 14 11 10 7 2 3 4 6 8 10 10 16 27 23 15 17 20 19 22 24
13 13 15 10 18 13 15 12 11 14 3 4 6 5 5 5 15 13 17 16 16 16 16 17 15 12 12 11 7 1 5 10 11 14 16 24 27 22 15 18 20 20 22
13 18 16 4 18 12 15 12 23 9 7 14 9 6 5 15 16 21 18 17 17 16 15 14 15 14 13 14 12 9 3 3 9 14 16 22 27 27 26 17 13 16 24
15 19 15 17 16 12 18 21 15 14 9 11 15 18 7 15 17 21 18 21 17 16 16 16 16 12 13 15 14 14 16 12 8 7 14 18 25 29 28 26 24 14 22
14 16 17 13 12 13 18 15 10 16 23 26 17 17 7 17 16 17 22 20 19 18 17 17 18 17 12 14 16 17 18 21 18 8 9 14 20 27 29 31 29 18 26
11 11 15 16 15 15 11 13 14 13 25 25 24 21 23 14 23 17 18 17 23 19 21 20 20 19 17 16 15 17 19 19 19 8 7 11 16 22 25 29 33 24 18
11 11 13 12 15 10 10 14 15 16 20 19 23 21 26 27 4 17 15 18 21 22 23 21 19 18 17 16 17 16 21 20 17 14 3 10 13 20 25 26 30 23 26
11 11 11 11 11 8 21 16 16 19 12 16 25 15 13 17 21 20 17 18 19 23 25 21 19 19 18 18 17 20 23 22 18 13 11 1 6 10 20 25 27 21 15
10 9 10 11 12 9 12 16 17 17 11 15 21 24 25 13 16 18 20 19 23 22 24 21 20 17 19 17 21 23 24 21 17 14 11 14 3 12 21 23 26 21 19
9 9 9 8 9 9 8 10 15 11 10 12 13 18 16 23 25 24 20 20 19 21 24 21 21 19 20 22 22 23 25 22 18 16 14 12 11 13 15 19 20 21 22
7 8 8 7 7 9 8 9 10 11 7 10 13 13 15 22 20 22 21 21 18 20 21 22 20 20 22 22 22 23 25 21 19 18 16 16 15 13 12 12 16 17 22
9 8 6 6 6 5 5 7 6 6 9 9 6 9 14 12 25 24 24 21 22 21 21 22 20 21 20 22 22 24 23 21 19 17 16 15 15 15 23 13 15 15 17
15 12 11 10 10 8 7 6 7 6 5 4 3 4 7 5 17 23 21 22 19 21 23 21 21 20 20 22 22 23 21 21 20 18 16 15 15 14 14 16 17 18 17
14 14 12 10 8 7 6 6 6 5 4 3 3 6 12 8 17 16 18 20 19 18 22 20 19 20 20 21 21 21 21 19 19 19 17 15 13 13 11 10 15 19 28
11 9 7 6 5 4 4 3 5 6 5 0 1 4 7 10 11 17 18 20 18 20 22 21 18 18 19 20 20 20 20 18 18 19 18 14 13 12 12 13 17 19 26
11 8 6 5 3 2 2 1 1 2 1 2 4 6 5 11 12 14 17 19 21 24 21 20 16 17 17 19 18 20 20 19 18 17 16 14 13 12 12 13 15 16 14
2 3 2 2 3 3 2 3 4 4 5 5 7 7 8 12 11 13 17 17 18 18 16 16 17 16 16 17 18 18 19 18 18 16 15 13 11 12 12 15 16 16 14
13 10 9 7 7 7 6 5 5 8 10 9 9 9 9 13 11 13 13 15 15 16 16 16 15 15 14 15 13 16 16 16 17 17 15 12 12 12 14 15 17 15 17
23 22 18 16 16 13 10 10 10 9 14 14 15 14 13 13 14 13 12 15 14 14 15 13 12 13 12 14 14 14 17 15 16 15 16 19 18 16 17 16 16 17 16
22 22 22 22 22 19 24 27 26 20 23 22 21 19 18 17 15 14 13 14 13 14 11 11 11 10 13 11 14 14 15 14 16 15 18 20 20 8 12 12 12 15 18
24 24 23 24 25 24 26 30 32 32 31 24 23 22 19 17 15 13 12 11 10 10 11 10 11 10 11 9 13 12 15 14 16 17 17 18 8 8 8 9 13 15 18
28 27 27 26 27 27 28 32 36 36 34 29 25 23 22 20 13 11 10 9 8 8 7 8 9 9 10 10 12 12 15 15 17 16 17 18 18 17 21 18 18 18 19
32 31 32 31 32 33 33 34 35 38 38 38 35 28 24 20 14 10 10 10 8 7 8 12 13 9 10 11 12 13 14 15 17 17 17 19 21 24 24 23 22 18 20
38 37 37 37 39 39 39 38 36 40 42 42 39 36 29 22 17 10 10 10 8 7 5 5 8 9 8 9 10 11 12 14 14 17 18 20 24 27 21 23 22 20 18
Wind_Direction
188 148 124 161 155 120 143 81 82 112 140 185 81 141 181 168 201 123 112 54 88 59 53 62 93 152 177 197 190 196 197 192 195 200 200 197 259 248 245 250 250 253 255
247 220 162 120 130 79 49 77 82 104 118 197 151 102 205 249 201 92 87 73 64 54 46 53 60 80 120 186 202 210 211 205 204 198 203 199 207 253 248 251 247 248 248
91 219 194 155 51 41 88 95 100 100 126 235 258 168 154 125 114 84 73 59 65 55 47 47 51 54 56 74 185 204 219 213 214 213 198 194 188 202 243 250 247 246 246
295 159 218 351 8 94 60 85 89 67 82 200 236 211 171 126 66 73 57 53 56 55 48 51 45 47 41 34 41 207 228 223 225 214 200 186 185 180 219 240 247 249 248
5 294 267 319 357 97 59 81 353 89 247 285 265 220 203 68 69 48 56 59 57 49 55 53 43 40 39 33 35 44 62 203 227 201 182 179 183 180 175 194 196 240 246
7 290 276 297 321 73 13 8 58 65 59 262 284 293 138 70 64 49 59 50 51 50 51 42 35 42 42 39 39 36 28 34 45 143 170 171 179 179 179 178 177 197 239
27 351 209 31 72 62 14 47 86 52 13 348 291 294 351 65 66 60 42 52 46 47 43 38 39 35 47 45 39 26 20 13 17 68 139 165 173 179 181 180 178 174 234
62 53 346 350 9 10 62 50 50 58 324 327 326 310 327 41 23 49 45 50 35 39 36 38 39 38 37 39 34 24 19 14 12 49 129 161 170 179 181 182 180 175 203
118 43 30 31 13 73 68 36 29 31 19 290 0 23 2 352 73 37 45 39 36 34 33 39 41 43 40 36 29 30 13 7 7 6 85 174 183 184 180 178 180 178 173
79 81 59 48 43 163 332 16 21 11 46 32 330 41 46 35 27 30 30 36 38 29 28 33 38 41 38 31 27 17 3 358 360 0 354 132 186 190 175 178 179 187 205
85 100 58 40 38 66 29 10 8 20 49 29 6 349 343 360 35 26 18 21 20 29 25 30 31 36 32 32 21 9 3 360 2 358 349 315 267 194 185 180 182 188 223
123 116 100 71 65 56 67 45 15 37 51 37 34 11 20 5 4 7 13 15 16 21 20 26 28 31 27 24 21 13 7 4 1 358 347 324 303 277 240 196 189 182 180
110 79 82 99 121 66 62 46 35 30 49 38 26 26 18 1 12 11 11 10 16 18 20 21 26 27 26 23 22 17 9 11 4 357 349 329 308 282 252 229 209 193 180
141 134 106 142 145 110 76 50 57 51 31 32 56 34 20 27 1 3 6 10 10 13 18 17 23 26 28 27 25 23 21 20 8 359 350 336 322 294 262 235 224 202 202
190 172 162 170 174 163 164 166 187 186 166 168 147 64 50 47 20 8 12 11 13 9 8 18 19 25 29 28 30 30 30 24 17 6 348 337 318 307 292 252 245 234 219
190 198 190 178 164 155 156 160 187 191 177 137 162 42 24 35 20 25 19 16 16 15 9 16 19 23 29 31 35 35 34 30 24 11 352 340 326 306 298 270 249 243 240
178 175 167 162 155 144 147 164 195 211 215 69 33 28 23 23 25 14 15 13 14 10 7 14 24 28 33 32 37 38 38 34 33 23 4 345 334 313 291 271 254 254 245
189 175 163 157 146 110 64 29 339 225 304 359 5 6 10 11 10 12 14 15 9 3 10 15 26 30 36 38 42 40 37 36 34 32 14 350 331 322 290 271 260 257 259
128 148 110 82 43 34 27 4 349 332 333 322 336 340 350 354 358 3 5 13 16 14 18 22 25 30 39 46 46 45 43 44 37 43 27 357 336 312 291 267 260 258 252
342 351 356 359 1 359 356 350 339 341 341 335 331 325 328 338 341 351 3 8 17 17 15 12 20 27 42 45 50 46 54 55 55 51 38 10 309 281 272 265 255 254 247
326 329 337 342 344 350 351 350 348 342 341 335 331 326 323 324 335 339 355 356 8 13 20 30 41 37 49 49 50 53 53 77 67 71 86 145 201 253 245 260 258 247 250
334 333 334 335 337 344 342 336 335 339 335 334 331 326 323 323 323 325 334 350 1 3 16 26 35 40 40 60 55 60 60 77 65 83 118 167 193 218 274 281 274 258 250
328 329 329 329 329 331 334 332 327 327 328 332 328 326 321 321 321 322 324 337 349 5 16 15 18 41 47 79 61 67 60 75 71 82 104 128 34 11 340 303 264 253 241
319 320 321 322 321 322 324 324 322 321 323 325 325 322 319 317 307 308 316 324 337 355 9 23 20 39 56 79 76 77 68 77 75 95 109 126 121 107 175 210 219 223 222
312 313 313 311 311 313 315 316 318 316 316 315 317 318 314 312 304 289 303 317 330 346 12 9 5 33 55 82 94 82 85 92 82 103 119 141 140 150 165 180 189 212 206
305 305 305 305 305 305 306 308 310 310 308 308 310 312 312 304 301 282 291 304 309 321 346 21 22 14 44 78 112 100 104 113 88 103 123 145 152 157 185 193 200 200 207